Starlink 5562

operational
NORAD ID: 56336 Int'l Des: 2023-058 Owner: SPXS Country: US Constellation: starlink
LEOCIRCULARRETROGRADESSO

Über Starlink 5562

Beschreibung wird geladen...

Live-Position

3D-Globus wird geladen...

Nächste Überflüge

Höhenverlauf

Altitude vs Time

uPlot chart will show altitude changes over time

Zweizeiliger Elementsatz

1 56336U 23058V 26035.99704414 .00000186 00000-0 19006-4 0 9990
2 56336 97.6043 38.1749 0003299 54.6401 305.5131 15.01258766153221
Epoch: 4. Feb. 2026 • Age: 16 hours

Aktueller Status

Höhe 593.0 km
Geschwindigkeit 7.56 km/s
Subsatellitenpunkt -79.56°S, 164.52°E
Startdatum 27. Apr. 2023
Alter 2.7 years
Typ internet

Technische Details

Klassifizierung Payload
Masse 300.00 kg
Trockenmasse 260.00 kg
Gesamtmasse 300.00 kg
Länge 0.20 m
Durchmesser 2.80 m
Spannweite 9.00 m
Form Box + pan
Hersteller SPXS
Bus-Typ Starlink
Phasenstatus In Orbit
Besitzer/Staat SPXS/US

Große Konstellationen

Loading constellations...